Location: Unspecified
(0.0000°N, 0.0000°E)
Time: 07:06:28
(UTC+00:00)

S-56A Canister/Altair - Pass Details

Date: 27 May 2024
Orbit: 637 x 2489 km, 38.9° (Epoch: 22 June)

Event Time Altitude Azimuth Distance (km) Brightness Sun altitude
Rises 23:21:11 0° 211° (SSW) 4,997 - -66.8°
Reaches altitude 10° 23:24:27 10° 204° (SSW) 4,244 - -67.0°
Maximum altitude 23:35:39 41° 137° (SE) 3,014 - -67.9°
Drops below altitude 10° 23:49:13 10° 72° (ENE) 5,144 - -68.4°
Exits shadow 23:49:59 - 71° (ENE) 5,315 11.8 -68.4°
Sets 23:53:35 0° 66° (ENE) 6,130 12.2 -68.5°
